Regional Weather Roundup
Issued by NWS Northern Indiana

Home | Current Version | Previous Version | Graphics & Text | Print | Product List | Glossary On
Versions: 1 2 3 4 5 6 7 8 9 10 11 12 13 14 15 16 17 18 19 20 21 22 23 24 25 26 27 28 29 30 31 32 33 34 35 36 37 38 39 40 41 42 43 44 45 46 47 48 49 50
000
ASUS43 KIWX 261410
RWRIWX

KIWX WEATHER ROUNDUP
NATIONAL WEATHER SERVICE NORTHERN INDIANA
900 AM EST FRI DEC 26 2014

NOTE: "FAIR" INDICATES FEW OR NO CLOUDS BELOW 12,000 FEET WITH NO
SIGNIFICANT WEATHER AND/OR OBSTRUCTIONS TO VISIBILITY.

* THESE STATIONS ARE NOT UNDER NWS QUALITY CONTROL. THEY ALSO MAY NOT
  REPORT WEATHER SUCH AS PRECIPITATION OR FOG.

INZ001>027-261500-
NORTHERN INDIANA

CITY           SKY/WX    TMP DP  RH WIND       PRES   REMARKS
VALPARAISO     CLEAR     34  31  88 S6        30.07R WCI  29
MICHIGAN CITY* CLEAR     37  30  75 S13G18    30.06R
LAPORTE*       CLEAR     35  34  96 S6        30.07R WCI  30
KNOX*          CLEAR     34  29  82 S9        30.07S WCI  27
SOUTH BEND     CLEAR     36  32  85 S12       30.07S
ELKHART*       CLEAR     36  30  80 S6        30.08S
GOSHEN         CLEAR     36  32  85 S12       30.08S
MONTICELLO*    CLEAR     37  33  87 S10       30.09R
LOGANSPORT*    CLEAR     34  32  93 S9        30.11S WCI  26
ROCHESTER*     CLEAR     37  34  87 S6        30.10S
WARSAW*        CLEAR     34  32  93 S3        30.09F
ANGOLA*        CLEAR     30  30 100 S5        30.10R WCI  25
FORT WAYNE     PTCLDY    34  31  88 S7        30.14R WCI  28
HUNTINGTON*    CLEAR     36  32  88 S6        30.12S
PERU/GRISSOM   CLEAR     36  36 100 S10       30.10S
MARION*        CLEAR     34  32  91 SW13G18   30.14R WCI  25

$$
INZ028>050-261500-
CENTRAL INDIANA

CITY           SKY/WX    TMP DP  RH WIND       PRES   REMARKS
LAFAYETTE      CLEAR     37  33  85 S6        30.11S
KOKOMO*        CLEAR     36  32  87 S13       30.12R
MUNCIE*        CLEAR     37  32  82 S10       30.15R
INDIANAPOLIS   PTCLDY    34  32  92 S9        30.15R WCI  27

$$
MIZ043>046-050>051-056>058-064>065-071>073-077>080-261500-
SOUTHWEST LOWER MICHIGAN

CITY           SKY/WX    TMP DP  RH WIND       PRES   REMARKS
BATTLE CREEK   CLEAR     35  31  85 S14       30.07R WCI  26
BENTON HARBOR  PTCLDY    35  32  88 S8        30.05R WCI  29
COLDWATER*     CLEAR     34  32  92 MISG      30.09R
HILLSDALE*     CLEAR     33  33  99 S9        30.09S WCI  26
HOLLAND        MOCLDY    37  32  82 S8        30.04R
GRAND RAPIDS   MOCLDY    35  31  85 S8        30.05R WCI  29
KALAMAZOO      CLEAR     34  31  88 S10       30.07R WCI  26
STURGIS*       CLEAR     34  32  93 S8        30.08S WCI  27
THREE RIVERS*  FAIR      34  32  91 S9        30.08S WCI  27

$$
OHZ001>008-015>018-024>025-261500-
NORTHWEST OHIO

CITY           SKY/WX    TMP DP  RH WIND       PRES   REMARKS
WAUSEON*       FAIR      34  32  93 S10       30.14R WCI  26
DEFIANCE       CLEAR     35  31  85 S7        30.15R WCI  29
FINDLAY        CLEAR     36  31  82 S13       30.16F
TOLEDO EXPRESS CLEAR     33  30  88 S6        30.15R WCI  28
TOLEDO METCALF CLEAR     34  30  85 S12       30.16F WCI  25
LIMA           CLEAR     36  31  82 S9        30.16S

$$
AND FOR LAKE MICHIGAN COASTAL AND OPEN LAKE BUOY OBSERVATIONS

STATION/POSITION TEMP    WIND        PRES    VSBY  WAVE
                 AIR SEA DIR/SP/G                  HT/PER
                 (F)     (DEG/KT/KT) (MB)    (MI)  (FT/S)
CALUMET HARBOR    38     190/  8/ 12 1015.8R
MICHIGAN CITY     38     160/ 15/ 19   N/A
SAINT JOSEPH      37     150/  4/  9 1018.6R

$$
&&



USA.gov is the U.S. government's official web portal to all federal, state and local government web resources and services.